TimeCDT,TemperatureF,Dew PointF,Humidity,Sea Level PressureIn,VisibilityMPH,Wind Direction,Wind SpeedMPH,Gust SpeedMPH,PrecipitationIn,Events,Conditions,WindDirDegrees,DateUTC
12:54 AM,70.0,66.9,90,29.99,10.0,Calm,Calm,-,N/A,,Clear,0,2012-09-29 05:54:00
1:54 AM,70.0,68.0,93,29.99,9.0,Calm,Calm,-,N/A,,Clear,0,2012-09-29 06:54:00
2:54 AM,71.1,68.0,90,29.98,10.0,Calm,Calm,-,N/A,,Clear,0,2012-09-29 07:54:00
3:54 AM,71.1,68.0,90,29.98,10.0,Calm,Calm,-,N/A,,Clear,0,2012-09-29 08:54:00
4:54 AM,71.1,69.1,93,29.96,10.0,Calm,Calm,-,N/A,,Partly Cloudy,0,2012-09-29 09:54:00
5:54 AM,71.1,69.1,93,29.97,10.0,Calm,Calm,-,N/A,,Scattered Clouds,0,2012-09-29 10:54:00
6:54 AM,71.1,68.0,90,29.97,10.0,Calm,Calm,-,N/A,,Partly Cloudy,0,2012-09-29 11:54:00
7:54 AM,72.0,69.1,91,29.98,10.0,Calm,Calm,-,N/A,,Scattered Clouds,0,2012-09-29 12:54:00
8:54 AM,75.0,70.0,84,29.99,10.0,Calm,Calm,-,N/A,,Partly Cloudy,0,2012-09-29 13:54:00
9:54 AM,75.9,70.0,82,29.99,10.0,Calm,Calm,-,N/A,,Scattered Clouds,0,2012-09-29 14:54:00
10:54 AM,78.1,69.1,74,29.98,10.0,NE,3.5,-,0.00,Rain,Light Rain,50,2012-09-29 15:54:00
11:54 AM,77.0,70.0,79,29.97,10.0,ENE,3.5,-,0.00,,Overcast,60,2012-09-29 16:54:00
12:54 PM,78.1,70.0,76,29.95,10.0,NE,4.6,-,0.00,,Overcast,50,2012-09-29 17:54:00
1:54 PM,79.0,70.0,74,29.92,10.0,ESE,5.8,-,N/A,,Overcast,110,2012-09-29 18:54:00
2:54 PM,78.1,72.0,81,29.91,10.0,NE,4.6,-,0.00,Rain,Light Rain,50,2012-09-29 19:54:00
3:54 PM,77.0,73.0,88,29.90,5.0,Calm,Calm,-,0.01,Rain,Light Rain,0,2012-09-29 20:54:00
4:26 PM,73.4,69.8,88,29.90,1.0,Variable,5.8,-,0.04,Rain,Heavy Rain,0,2012-09-29 21:26:00
4:29 PM,73.4,71.6,94,29.90,0.8,ESE,3.5,-,0.13,Rain,Heavy Rain,120,2012-09-29 21:29:00
4:35 PM,75.2,69.8,83,29.90,2.0,NNE,3.5,-,0.24,Rain,Heavy Rain,30,2012-09-29 21:35:00
4:54 PM,73.9,71.1,91,29.88,3.0,NNE,16.1,20.7,0.29,Rain,Light Rain,30,2012-09-29 21:54:00
5:13 PM,73.4,69.8,88,29.89,2.5,NNE,5.8,-,0.07,Rain,Rain,30,2012-09-29 22:13:00
5:15 PM,73.4,69.8,88,29.89,3.0,NE,5.8,-,0.07,Rain,Light Rain,50,2012-09-29 22:15:00
5:30 PM,73.4,71.6,94,29.89,6.0,SSE,8.1,-,0.08,Rain,Light Rain,160,2012-09-29 22:30:00
5:50 PM,73.4,71.6,94,29.89,7.0,SSE,4.6,-,0.08,,Overcast,150,2012-09-29 22:50:00
5:54 PM,73.0,71.1,93,29.88,7.0,SSE,4.6,-,0.08,Rain,Light Rain,150,2012-09-29 22:54:00
6:21 PM,73.4,69.8,88,29.89,10.0,SSE,6.9,-,0.00,Rain,Light Rain,150,2012-09-29 23:21:00
6:54 PM,72.0,71.1,97,29.88,7.0,Calm,Calm,-,0.00,Rain,Light Rain,0,2012-09-29 23:54:00
7:18 PM,71.6,69.8,94,29.89,6.0,Calm,Calm,-,0.01,Rain,Light Rain,0,2012-09-30 00:18:00
7:36 PM,73.4,71.6,94,29.90,7.0,Calm,Calm,-,0.02,Rain,Light Rain,0,2012-09-30 00:36:00
7:54 PM,73.0,71.1,93,29.89,5.0,NNE,3.5,-,0.03,Rain,Light Rain,30,2012-09-30 00:54:00
8:40 PM,71.6,69.8,94,29.90,5.0,East,4.6,-,0.04,Rain,Light Rain,100,2012-09-30 01:40:00
8:54 PM,72.0,70.0,93,29.89,4.0,East,4.6,-,0.07,Rain,Rain,100,2012-09-30 01:54:00
9:00 PM,71.6,69.8,94,29.91,4.0,East,3.5,-,0.00,Rain,Rain,100,2012-09-30 02:00:00
9:12 PM,71.6,69.8,94,29.90,5.0,ESE,3.5,-,0.02,Rain,Light Rain,110,2012-09-30 02:12:00
9:29 PM,71.6,69.8,94,29.90,6.0,Calm,Calm,-,0.04,Rain,Light Rain,0,2012-09-30 02:29:00
9:51 PM,71.6,69.8,94,29.90,7.0,East,3.5,-,0.05,Rain,Light Rain,100,2012-09-30 02:51:00
9:54 PM,71.1,69.1,93,29.90,7.0,East,3.5,-,0.05,Rain,Light Rain,90,2012-09-30 02:54:00
10:01 PM,71.6,69.8,94,29.91,8.0,ENE,3.5,-,0.01,Rain,Light Rain,70,2012-09-30 03:01:00
10:54 PM,70.0,66.9,90,29.90,4.0,East,3.5,-,0.02,Rain,Light Rain,90,2012-09-30 03:54:00
11:06 PM,69.8,66.2,88,29.91,3.0,East,3.5,-,0.02,Rain,Rain,90,2012-09-30 04:06:00
11:15 PM,69.8,68.0,94,29.90,2.5,Calm,Calm,-,0.06,Rain,Heavy Rain,0,2012-09-30 04:15:00
11:35 PM,69.8,68.0,94,29.90,4.0,ESE,4.6,-,0.11,Rain,Light Rain,120,2012-09-30 04:35:00
11:54 PM,69.1,68.0,96,29.89,6.0,South,5.8,-,0.12,Rain,Light Rain,180,2012-09-30 04:54:00